Powrót do katalogu

SL-14 DEB

AktywnyPO
NORAD 46465·DEBRIS·🇷🇺 Russia

Wystrzelony Aug 15, 1991 z Plesetsk Cosmodrome

Loading…

Następne Przeloty (najbliższe 24 godziny)

TLE

ŚwieżeSource: Space-Track

Epoka: Sep 13, 2026, 06:36 UTC

1 46465U 91056DA  26256.27522711 -.00000548  00000-0 -15636-2 0  9996
2 46465  82.5565  94.1413 0028858  80.4549 279.9829 13.12057283292530

Śledź SL-14 DEB w czasie rzeczywistym z AllMySat

Download on the App Store